When you browse on this site, cookies collect data to enhance your experience and personalize the content and advertising you see.
Visit our Privacy Policy to learn more. By continuing to use the site, you agree to this use of cookies and data.
  • In Hungary
  • List of Countries
  • For 7 days
  • Water Temperature
  • Weather Map
  • News
  • Weather Widgets
  • user-avatar
    Login

    Hourly Weather Rudka

    Today, 19 February, Wednesday

    Time Temperature Precipitation Wind Pressure Humidity
    00:00 +1°C° 0 mm 5 mps 749 mmHg 75%
    01:00 +1°C° 0 mm 5 mps 749 mmHg 76%
    02:00 +1°C° 0 mm 5 mps 749 mmHg 77%
    03:00 +1°C° 0 mm 5 mps 748 mmHg 79%
    04:00 0°C° 0 mm 5 mps 748 mmHg 80%
    05:00 0°C° 0 mm 5 mps 748 mmHg 82%
    06:00 0°C° 0 mm 5 mps 748 mmHg 83%
    07:00 0°C° 0 mm 4 mps 748 mmHg 84%
    08:00 +1°C° 0 mm 5 mps 747 mmHg 80%
    09:00 +2°C° 0 mm 5 mps 747 mmHg 77%
    10:00 +2°C° 0 mm 6 mps 747 mmHg 73%
    11:00 +3°C° 0 mm 6 mps 747 mmHg 69%
    12:00 +4°C° 0 mm 6 mps 746 mmHg 65%
    13:00 +4°C° 0 mm 6 mps 746 mmHg 62%
    14:00 +5°C° 0 mm 5 mps 745 mmHg 63%
    15:00 +5°C° 0 mm 5 mps 745 mmHg 64%
    16:00 +5°C° 0 mm 4 mps 745 mmHg 65%
    17:00 +4°C° 0 mm 4 mps 744 mmHg 69%
    18:00 +4°C° 0 mm 4 mps 744 mmHg 72%
    19:00 +4°C° 0 mm 4 mps 744 mmHg 75%
    20:00 +2°C° 0.2 mm 5 mps 745 mmHg 81%
    21:00 +2°C° 0.2 mm 5 mps 745 mmHg 87%
    22:00 +2°C° 0.2 mm 6 mps 745 mmHg 92%
    23:00 +2°C° 0.1 mm 5 mps 745 mmHg 88%

    Tomorrow, 20 February, Thursday

    Time Temperature Precipitation Wind Pressure Humidity
    00:00 +1°C° 0.1 mm 5 mps 746 mmHg 83%
    01:00 +1°C° 0.1 mm 5 mps 746 mmHg 79%
    02:00 +1°C° 0 mm 5 mps 746 mmHg 80%
    03:00 +1°C° 0 mm 5 mps 746 mmHg 81%
    04:00 +1°C° 0 mm 5 mps 746 mmHg 82%
    05:00 +1°C° 0 mm 5 mps 747 mmHg 83%
    06:00 0°C° 0 mm 5 mps 747 mmHg 83%
    07:00 0°C° 0 mm 5 mps 747 mmHg 84%
    08:00 0°C° 0 mm 5 mps 748 mmHg 81%
    09:00 +1°C° 0 mm 6 mps 748 mmHg 78%
    10:00 +1°C° 0 mm 6 mps 749 mmHg 76%
    11:00 +1°C° 0.1 mm 6 mps 749 mmHg 76%
    12:00 +1°C° 0.1 mm 6 mps 749 mmHg 77%
    13:00 +2°C° 0.1 mm 6 mps 749 mmHg 77%
    14:00 +2°C° 0.1 mm 5 mps 749 mmHg 76%
    15:00 +3°C° 0.1 mm 4 mps 749 mmHg 75%
    16:00 +3°C° 0.1 mm 3 mps 749 mmHg 74%
    17:00 +2°C° 0 mm 3 mps 750 mmHg 75%
    18:00 +2°C° 0 mm 3 mps 750 mmHg 75%
    19:00 +3°C° 0 mm 2 mps 750 mmHg 76%
    20:00 +2°C° 0 mm 2 mps 750 mmHg 77%
    21:00 +2°C° 0 mm 2 mps 750 mmHg 79%
    22:00 0°C° 0 mm 3 mps 750 mmHg 81%
    23:00 0°C° 0 mm 3 mps 749 mmHg 79%

    Day after tomorrow, 21 February, Friday

    Time Temperature Precipitation Wind Pressure Humidity
    00:00 -1°C° 0 mm 4 mps 749 mmHg 77%
    01:00 -1°C° 0 mm 5 mps 749 mmHg 75%
    02:00 -1°C° 0 mm 5 mps 748 mmHg 74%
    03:00 -2°C° 0 mm 6 mps 748 mmHg 74%
    04:00 -2°C° 0 mm 6 mps 747 mmHg 73%
    05:00 -2°C° 0 mm 6 mps 747 mmHg 74%
    06:00 -2°C° 0 mm 7 mps 746 mmHg 75%
    07:00 -2°C° 0 mm 7 mps 746 mmHg 76%
    14:00 0°C° 0.2 mm 7 mps 747 mmHg 83%
    15:00 +1°C° 0.2 mm 6 mps 748 mmHg 77%
    16:00 +2°C° 0.2 mm 5 mps 748 mmHg 70%
    17:00 +1°C° 0 mm 5 mps 749 mmHg 74%
    18:00 +1°C° 0 mm 5 mps 750 mmHg 78%
    19:00 0°C° 0 mm 5 mps 751 mmHg 82%
    20:00 0°C° 0 mm 5 mps 752 mmHg 83%
    21:00 0°C° 0 mm 5 mps 752 mmHg 84%
    22:00 0°C° 0 mm 5 mps 752 mmHg 84%
    23:00 -1°C° 0 mm 5 mps 753 mmHg 85%

    22 February, Saturday

    Time Temperature Precipitation Wind Pressure Humidity
    00:00 -1°C° 0 mm 4 mps 753 mmHg 87%
    01:00 -1°C° 0 mm 4 mps 753 mmHg 88%
    02:00 -1°C° 0 mm 4 mps 754 mmHg 89%
    03:00 -2°C° 0 mm 4 mps 754 mmHg 91%
    04:00 -2°C° 0 mm 4 mps 754 mmHg 92%
    05:00 -2°C° 0 mm 4 mps 754 mmHg 92%
    06:00 -2°C° 0 mm 4 mps 754 mmHg 91%
    07:00 -2°C° 0 mm 4 mps 754 mmHg 91%
    08:00 -1°C° 0 mm 5 mps 754 mmHg 84%
    09:00 -1°C° 0 mm 6 mps 754 mmHg 78%
    10:00 +2°C° 0 mm 6 mps 754 mmHg 71%
    11:00 +2°C° 0 mm 7 mps 753 mmHg 70%
    12:00 +3°C° 0 mm 7 mps 753 mmHg 69%
    13:00 +3°C° 0 mm 7 mps 753 mmHg 68%
    14:00 +3°C° 0 mm 7 mps 752 mmHg 67%
    15:00 +3°C° 0 mm 7 mps 751 mmHg 66%
    16:00 +3°C° 0 mm 6 mps 750 mmHg 66%
    17:00 +3°C° 0 mm 7 mps 750 mmHg 67%
    18:00 +3°C° 0 mm 7 mps 749 mmHg 67%
    19:00 +2°C° 0 mm 8 mps 748 mmHg 68%
    20:00 +2°C° 0.4 mm 8 mps 748 mmHg 72%
    21:00 +2°C° 0.4 mm 9 mps 747 mmHg 76%
    22:00 +2°C° 0.4 mm 9 mps 746 mmHg 80%
    23:00 +3°C° 0.2 mm 9 mps 746 mmHg 78%

    23 February, Sunday

    Time Temperature Precipitation Wind Pressure Humidity
    00:00 +3°C° 0.2 mm 9 mps 745 mmHg 76%
    01:00 +3°C° 0.2 mm 9 mps 745 mmHg 74%
    02:00 +5°C° 0 mm 10 mps 744 mmHg 73%
    03:00 +5°C° 0 mm 10 mps 744 mmHg 72%
    04:00 +5°C° 0 mm 10 mps 744 mmHg 72%
    05:00 +5°C° 0.7 mm 9 mps 744 mmHg 74%
    06:00 +3°C° 0.7 mm 9 mps 744 mmHg 77%
    07:00 +4°C° 0.7 mm 8 mps 744 mmHg 80%
    08:00 +4°C° 0.1 mm 8 mps 744 mmHg 76%
    09:00 +4°C° 0.1 mm 8 mps 744 mmHg 73%
    10:00 +3°C° 0.1 mm 9 mps 745 mmHg 70%
    11:00 +3°C° 0.1 mm 9 mps 745 mmHg 68%
    12:00 +3°C° 0.1 mm 9 mps 745 mmHg 66%
    13:00 +3°C° 0.1 mm 9 mps 745 mmHg 64%
    14:00 +4°C° 0.1 mm 8 mps 744 mmHg 70%
    15:00 +2°C° 0.1 mm 8 mps 744 mmHg 75%
    16:00 +3°C° 0.1 mm 7 mps 744 mmHg 81%
    17:00 +2°C° 0.1 mm 7 mps 743 mmHg 80%
    18:00 +2°C° 0.1 mm 6 mps 743 mmHg 80%
    19:00 +2°C° 0.1 mm 6 mps 742 mmHg 80%
    20:00 +2°C° 0.5 mm 5 mps 741 mmHg 85%
    21:00 +2°C° 0.5 mm 5 mps 741 mmHg 90%
    22:00 +2°C° 0.5 mm 5 mps 740 mmHg 95%
    23:00 +2°C° 1.1 mm 5 mps 739 mmHg 94%

    24 February, Monday

    Time Temperature Precipitation Wind Pressure Humidity
    00:00 +1°C° 1.1 mm 6 mps 738 mmHg 94%
    01:00 +1°C° 1.1 mm 6 mps 737 mmHg 94%
    02:00 0°C° 0.6 mm 7 mps 737 mmHg 94%
    03:00 -1°C° 0.6 mm 8 mps 738 mmHg 94%
    04:00 -1°C° 0.6 mm 8 mps 738 mmHg 94%
    05:00 -1°C° 0.2 mm 9 mps 739 mmHg 91%
    06:00 -1°C° 0.2 mm 9 mps 740 mmHg 88%
    07:00 -2°C° 0.2 mm 10 mps 741 mmHg 85%
    08:00 -2°C° 0.1 mm 10 mps 742 mmHg 84%
    09:00 -1°C° 0.1 mm 11 mps 743 mmHg 82%
    10:00 -1°C° 0.1 mm 11 mps 744 mmHg 80%
    11:00 +1°C° 0 mm 11 mps 745 mmHg 71%
    12:00 +2°C° 0 mm 10 mps 746 mmHg 63%
    13:00 +5°C° 0 mm 10 mps 747 mmHg 54%
    14:00 +3°C° 0 mm 9 mps 747 mmHg 56%
    15:00 +3°C° 0 mm 9 mps 748 mmHg 57%
    16:00 +4°C° 0 mm 8 mps 749 mmHg 59%
    17:00 +2°C° 0 mm 7 mps 750 mmHg 61%
    18:00 0°C° 0 mm 7 mps 750 mmHg 63%
    19:00 -1°C° 0 mm 6 mps 751 mmHg 65%
    20:00 0°C° 0 mm 5 mps 752 mmHg 68%
    21:00 -1°C° 0 mm 4 mps 752 mmHg 71%
    22:00 -2°C° 0 mm 4 mps 753 mmHg 74%
    23:00 -1°C° 0 mm 3 mps 753 mmHg 75%
    Show more